Location: Zagreb
(45.8000°N, 16.0000°E)
Time: 08:24:27
(UTC+01:00)

N. Korean satellite - Pass Details

Date: 12 December 2021
Orbit: 447 x 491 km, 97.3° (Epoch: 23 January)

Event Time Altitude Azimuth Distance (km) Brightness Sun altitude
Rises 17:17:53 0° 206° (SSW) 2,496 11.0 -11.1°
Reaches altitude 10° 17:20:35 10° 229° (SW) 1,615 10.5 -11.5°
Maximum altitude 17:22:44 16° 268° (W) 1,311 9.9 -11.9°
Drops below altitude 10° 17:24:52 10° 306° (NW) 1,609 9.7 -12.2°
Sets 17:27:34 0° 330° (NNW) 2,481 10.3 -12.7°
